EW4963 Weather Reports


time (UTC)temp
F
wind
direction
speed
knots
gust
knots
rain 1hr
in
rain 24hr
in
rain mn
in
humidity
%
barometer
mb
20220629034254 75 96 0.0 0.0 0.00 0.00 0.00 67 1016.9
20220629033746 75 96 0.0 0.0 0.00 0.00 0.00 67 1016.9
20220629033232 75 96 0.0 0.0 0.00 0.00 0.00 67 1016.8
20220629032655 76 96 0.0 0.0 0.00 0.00 0.00 67 1016.9
20220629032141 76 96 0.0 0.0 0.00 0.00 0.00 66 1016.9
20220629031641 76 96 0.0 0.0 0.00 0.00 0.00 66 1016.5
20220629031134 76 96 0.0 0.0 0.00 0.00 0.00 66 1016.5
20220629030623 76 96 0.0 0.0 0.00 0.00 0.00 65 1016.5
20220629030119 76 96 0.0 0.0 0.00 0.00 0.00 65 1016.3
20220629025619 77 96 0.0 0.0 0.00 0.00 0.00 65 1016.3
20220629025119 77 96 0.0 0.9 0.00 0.00 0.00 64 1016.3
20220629024615 77 96 0.0 0.9 0.00 0.00 0.00 63 1016.1
20220629024116 77 96 0.0 0.0 0.00 0.00 0.00 63 1016.1
20220629023614 78 96 0.0 0.0 0.00 0.00 0.00 62 1016.1
20220629023115 78 96 0.0 0.9 0.00 0.00 0.00 62 1016.0
20220629022605 78 96 0.0 0.9 0.00 0.00 0.00 61 1016.0
20220629022045 79 96 0.0 0.0 0.00 0.00 0.00 60 1016.0
20220629021534 79 96 0.0 0.0 0.00 0.00 0.00 60 1016.1
20220629021031 79 96 0.0 0.0 0.00 0.00 0.00 60 1016.1
20220629020523 79 96 0.0 0.0 0.00 0.00 0.00 59 1016.2
20220629020018 80 96 0.0 0.0 0.00 0.00 0.00 59 1016.2
20220629015518 80 96 0.0 0.0 0.00 0.00 0.00 58 1016.2
20220629015016 80 96 0.0 0.0 0.00 0.00 0.00 58 1016.2
20220629014516 80 96 0.0 0.0 0.00 0.00 0.00 57 1016.0
20220629014006 81 96 0.0 0.9 0.00 0.00 0.00 57 1016.0
20220629013508 81 96 0.0 0.9 0.00 0.00 0.00 56 1016.0
20220629013007 81 101 0.0 0.9 0.00 0.00 0.00 56 1015.8
20220629012506 81 101 0.0 3.5 0.00 0.00 0.00 55 1015.8
20220629011936 81 106 0.0 3.5 0.00 0.00 0.00 55 1015.9
20220629011435 82 65 0.9 4.3 0.00 0.00 0.00 55 1016.1
20220629010926 82 66 0.9 5.2 0.00 0.00 0.00 54 1016.1
20220629010437 82 45 0.9 5.2 0.00 0.00 0.00 54 1016.1
20220629005919 82 145 0.9 5.2 0.00 0.00 0.00 54 1016.0
20220629005419 82 45 0.9 5.2 0.00 0.00 0.00 53 1016.0
20220629004919 82 99 1.7 7.8 0.00 0.00 0.00 53 1016.0
20220629004416 83 48 1.7 7.8 0.00 0.00 0.00 52 1015.9
20220629003911 83 63 1.7 7.8 0.00 0.00 0.00 52 1015.9
20220629003410 83 41 0.9 7.0 0.00 0.00 0.00 52 1015.9
20220629002911 83 64 0.9 7.0 0.00 0.00 0.00 51 1015.9
20220629002411 83 84 0.9 7.0 0.00 0.00 0.00 51 1015.9
20220629001912 83 61 1.7 6.1 0.00 0.00 0.00 51 1015.9
20220629001408 83 70 1.7 7.0 0.00 0.00 0.00 50 1015.8
20220629000906 83 65 1.7 7.0 0.00 0.00 0.00 49 1015.9
20220629000408 83 73 0.9 7.0 0.00 0.00 0.00 49 1015.9
20220628235903 83 0 1.7 5.2 0.00 0.00 0.00 49 1015.9
20220628235402 84 48 1.7 5.2 0.00 0.00 0.00 50 1015.9
20220628234854 84 49 0.9 6.1 0.00 0.00 0.00 51 1015.9
20220628234356 84 19 0.9 6.1 0.00 0.00 0.00 52 1015.9
20220628233856 84 101 0.9 6.1 0.00 0.00 0.00 53 1015.9
20220628233352 84 10 0.9 6.1 0.00 0.00 0.00 52 1015.9
20220628232846 84 75 0.9 6.1 0.00 0.00 0.00 53 1016.1
20220628232345 84 349 1.7 7.0 0.00 0.00 0.00 53 1016.1
20220628231846 84 82 1.7 7.0 0.00 0.00 0.00 53 1016.1
20220628231347 85 67 0.9 5.2 0.00 0.00 0.00 53 1016.3
20220628230844 85 90 0.9 4.3 0.00 0.00 0.00 53 1016.3
20220628230344 85 52 0.9 4.3 0.00 0.00 0.00 53 1016.3
20220628225844 86 26 0.9 4.3 0.00 0.00 0.00 53 1016.5
20220628225342 86 51 0.9 3.5 0.00 0.00 0.00 53 1016.5
20220628224844 86 71 0.9 5.2 0.00 0.00 0.00 52 1016.5
20220628224340 87 64 0.9 5.2 0.00 0.00 0.00 51 1016.8
20220628223840 87 61 0.9 4.3 0.00 0.00 0.00 52 1016.8
20220628223337 87 32 0.9 4.3 0.00 0.00 0.00 52 1016.8
20220628222837 86 122 0.0 4.3 0.00 0.00 0.00 52 1016.9
20220628222338 86 42 0.9 5.2 0.00 0.00 0.00 52 1016.9
20220628221834 87 48 0.9 5.2 0.00 0.00 0.00 50 1016.9
20220628221334 87 52 0.9 4.3 0.00 0.00 0.00 51 1017.2
20220628220833 87 311 0.9 4.3 0.00 0.00 0.00 51 1017.2
20220628220345 87 36 0.9 4.3 0.00 0.00 0.00 51 1017.2
20220628215833 87 355 0.9 4.3 0.00 0.00 0.00 52 1017.6
20220628215326 87 285 0.9 4.3 0.00 0.00 0.00 52 1017.6
20220628214822 87 283 0.0 3.5 0.00 0.00 0.00 54 1017.8
20220628214320 85 284 0.0 3.5 0.00 0.00 0.00 53 1017.7
20220628213822 85 78 0.0 2.6 0.00 0.00 0.00 53 1017.7
20220628213320 85 317 0.9 3.5 0.00 0.00 0.00 56 1017.8
20220628212822 84 317 0.9 3.5 0.00 0.00 0.00 57 1017.8
20220628212308 84 327 0.0 4.3 0.00 0.00 0.00 57 1017.7
20220628211808 84 331 0.9 4.3 0.00 0.00 0.00 58 1018.0
20220628211305 84 313 0.9 4.3 0.00 0.00 0.00 58 1018.0
20220628210805 84 322 0.9 5.2 0.00 0.00 0.00 58 1018.0
20220628210301 84 314 0.9 5.2 0.00 0.00 0.00 57 1018.0
20220628205801 84 290 0.9 4.3 0.00 0.00 0.00 57 1018.1
20220628205302 84 334 0.9 4.3 0.00 0.00 0.00 56 1018.1
20220628204756 85 303 0.9 3.5 0.00 0.00 0.00 56 1018.3
20220628204256 85 301 0.9 5.2 0.00 0.00 0.00 56 1018.3
20220628203755 85 309 0.9 5.2 0.00 0.00 0.00 54 1018.3
20220628202748 85 302 1.7 6.1 0.00 0.00 0.00 54 1018.6
20220628202241 86 289 0.9 5.2 0.00 0.00 0.00 54 1018.6
20220628201742 86 312 0.9 5.2 0.00 0.00 0.00 53 1018.5
20220628201240 86 323 0.0 6.1 0.00 0.00 0.00 52 1018.5
20220628200733 86 50 0.9 4.3 0.00 0.00 0.00 48 1018.5
20220628200235 86 63 0.9 5.2 0.00 0.00 0.00 48 1018.5
20220628195728 87 86 0.9 5.2 0.00 0.00 0.00 48 1018.5
20220628195218 87 46 0.9 5.2 0.00 0.00 0.00 48 1018.6
20220628194719 87 13 0.0 3.5 0.00 0.00 0.00 49 1018.9
20220628194222 87 323 0.0 4.3 0.00 0.00 0.00 47 1018.9
20220628193717 87 319 0.0 4.3 0.00 0.00 0.00 47 1018.9
20220628193215 87 336 0.9 5.2 0.00 0.00 0.00 47 1018.9
20220628192708 87 328 0.9 5.2 0.00 0.00 0.00 48 1018.9
20220628192207 87 282 0.9 5.2 0.00 0.00 0.00 47 1018.9
20220628191709 88 15 0.9 3.5 0.00 0.00 0.00 46 1019.0
20220628191214 88 89 0.9 3.5 0.00 0.00 0.00 47 1019.0
20220628190705 88 79 0.9 4.3 0.00 0.00 0.00 47 1019.0
20220628190218 87 220 1.7 5.2 0.00 0.00 0.00 48 1019.2
20220628185707 87 86 1.7 5.2 0.00 0.00 0.00 47 1019.2
20220628185208 87 102 0.9 5.2 0.00 0.00 0.00 49 1019.2
20220628184702 87 53 0.0 3.5 0.00 0.00 0.00 49 1019.5
20220628184155 86 58 0.9 4.3 0.00 0.00 0.00 49 1019.5
20220628183655 86 53 0.9 4.3 0.00 0.00 0.00 48 1019.5
20220628183157 87 42 0.9 3.5 0.00 0.00 0.00 47 1019.5
20220628182653 87 61 0.9 3.5 0.00 0.00 0.00 46 1019.5
20220628182147 87 59 0.9 4.3 0.00 0.00 0.00 47 1019.6
20220628181648 87 114 0.9 5.2 0.00 0.00 0.00 47 1019.6
20220628181146 88 99 0.9 5.2 0.00 0.00 0.00 46 1019.6
20220628180647 88 47 0.9 3.5 0.00 0.00 0.00 46 1019.6
20220628180147 88 61 0.9 6.1 0.00 0.00 0.00 46 1019.6
20220628175645 89 58 0.9 6.1 0.00 0.00 0.00 46 1019.6
20220628175147 88 72 0.9 5.2 0.00 0.00 0.00 46 1019.6
20220628174647 88 71 0.9 5.2 0.00 0.00 0.00 45 1019.8
20220628174148 87 99 0.9 4.3 0.00 0.00 0.00 48 1019.7
20220628173631 87 63 0.9 4.3 0.00 0.00 0.00 49 1019.7
20220628173133 87 68 0.0 3.5 0.00 0.00 0.00 50 1019.9
20220628172633 86 38 0.9 3.5 0.00 0.00 0.00 51 1019.9
20220628172130 86 48 1.7 5.2 0.00 0.00 0.00 50 1019.9
20220628171628 86 111 1.7 5.2 0.00 0.00 0.00 50 1019.9
20220628171130 85 80 0.9 4.3 0.00 0.00 0.00 51 1019.8
20220628170627 85 83 0.9 5.2 0.00 0.00 0.00 52 1019.8
20220628170127 85 41 1.7 6.1 0.00 0.00 0.00 52 1019.9
20220628165627 85 222 0.9 6.1 0.00 0.00 0.00 51 1019.8
20220628165126 85 127 0.9 3.5 0.00 0.00 0.00 51 1019.8
20220628164627 85 86 0.9 5.2 0.00 0.00 0.00 51 1019.8
20220628164129 85 115 0.9 5.2 0.00 0.00 0.00 51 1019.8
20220628163621 85 61 1.7 7.0 0.00 0.00 0.00 52 1019.8
20220628163122 85 82 2.6 7.0 0.00 0.00 0.00 50 1019.8
20220628162623 85 61 1.7 6.1 0.00 0.00 0.00 51 1019.8
20220628162118 85 199 1.7 6.1 0.00 0.00 0.00 50 1019.8
20220628161616 85 109 1.7 6.1 0.00 0.00 0.00 51 1019.9
20220628161115 85 17 0.9 5.2 0.00 0.00 0.00 52 1019.9
20220628160602 84 119 1.7 5.2 0.00 0.00 0.00 53 1019.9
20220628160055 84 33 1.7 7.0 0.00 0.00 0.00 54 1019.9
20220628155548 84 24 1.7 7.0 0.00 0.00 0.00 53 1019.9
20220628155040 84 51 0.9 6.1 0.00 0.00 0.00 54 1019.9
20220628154540 83 298 0.9 4.3 0.00 0.00 0.00 55 1019.9
20220628154041 83 132 0.9 4.3 0.00 0.00 0.00 55 1019.8
20220628153534 83 97 1.7 4.3 0.00 0.00 0.00 55 1019.8
20220628153037 82 60 0.9 6.1 0.00 0.00 0.00 57 1019.8
20220628152531 82 42 0.9 6.1 0.00 0.00 0.00 57 1019.8
20220628152028 81 40 1.7 6.1 0.00 0.00 0.00 59 1019.8
20220628151526 81 61 1.7 6.1 0.00 0.00 0.00 59 1019.5
20220628150520 81 64 0.9 5.2 0.00 0.00 0.00 60 1019.4
20220628150019 80 98 1.7 5.2 0.00 0.00 0.00 61 1019.4
20220628145515 80 128 0.9 5.2 0.00 0.00 0.00 61 1019.4
20220628145014 80 88 0.9 4.3 0.00 0.00 0.00 62 1019.4
20220628144515 79 160 0.9 3.5 0.00 0.00 0.00 64 1019.5
20220628144013 79 60 0.9 5.2 0.00 0.00 0.00 65 1019.5
20220628143509 78 115 1.7 5.2 0.00 0.00 0.00 66 1019.4
20220628143012 78 125 0.9 5.2 0.00 0.00 0.00 67 1019.7
20220628142509 77 11 0.9 5.2 0.00 0.00 0.00 68 1019.7
20220628142012 77 33 0.9 5.2 0.00 0.00 0.00 71 1019.7
20220628141508 76 9 0.9 5.2 0.00 0.00 0.00 73 1019.7
20220628140957 76 60 0.0 3.5 0.00 0.00 0.00 74 1019.7
20220628140457 75 56 0.0 1.7 0.00 0.00 0.00 76 1019.7
20220628135941 75 53 0.9 4.3 0.00 0.00 0.00 77 1019.3
20220628135441 74 63 1.7 4.3 0.00 0.00 0.00 77 1019.2
20220628134937 74 32 1.7 5.2 0.00 0.00 0.00 78 1019.2
20220628134438 73 38 0.9 5.2 0.00 0.00 0.00 79 1019.2
20220628133937 73 38 0.9 5.2 0.00 0.00 0.00 81 1019.2
20220628133438 72 40 0.9 5.2 0.00 0.00 0.00 82 1019.1
20220628132928 71 64 0.9 4.3 0.00 0.00 0.00 83 1019.1
20220628132419 71 290 0.9 4.3 0.00 0.00 0.00 84 1019.1
20220628131919 70 355 0.9 3.5 0.00 0.00 0.00 85 1019.1
20220628131415 70 44 0.9 4.3 0.00 0.00 0.00 85 1018.8
20220628130914 69 61 1.7 5.2 0.00 0.00 0.00 85 1018.8
20220628130413 69 34 1.7 5.2 0.00 0.00 0.00 86 1018.8
20220628125915 69 33 0.9 4.3 0.00 0.00 0.00 86 1018.8
20220628125415 69 36 0.9 4.3 0.00 0.00 0.00 87 1018.8
20220628124911 69 49 1.7 7.0 0.00 0.00 0.00 87 1018.8
20220628124410 69 57 0.9 7.0 0.00 0.00 0.00 87 1018.6
20220628123909 68 338 0.9 5.2 0.00 0.00 0.00 88 1018.6
20220628123411 68 24 0.9 5.2 0.00 0.00 0.00 88 1018.6
20220628122850 68 61 0.9 1.7 0.00 0.00 0.00 88 1018.5
20220628122343 68 257 0.0 1.7 0.00 0.00 0.00 89 1018.5
20220628121845 68 349 0.0 0.9 0.00 0.00 0.00 88 1018.4
20220628121339 68 15 0.0 1.7 0.00 0.00 0.00 88 1018.2
20220628120840 68 31 0.9 5.2 0.00 0.00 0.00 88 1018.2
20220628120336 68 61 0.0 5.2 0.00 0.00 0.00 88 1018.2
20220628115830 68 290 0.0 1.7 0.00 0.00 0.00 89 1018.3
20220628115331 68 290 0.0 0.9 0.00 0.00 0.00 88 1018.3
20220628114826 68 290 0.0 0.9 0.00 0.00 0.00 88 1018.3
20220628114310 68 281 0.0 0.0 0.00 0.00 0.00 88 1018.4
20220628113809 68 282 0.0 0.0 0.00 0.00 0.00 88 1018.4
20220628113308 68 282 0.0 0.0 0.00 0.00 0.00 88 1018.3
20220628112803 69 282 0.0 1.7 0.00 0.00 0.00 88 1018.3
20220628112302 69 282 0.0 1.7 0.00 0.00 0.00 88 1018.3
20220628111757 69 282 0.0 0.9 0.00 0.00 0.00 88 1018.1
20220628111259 69 281 0.0 0.9 0.00 0.00 0.00 88 1018.1
20220628110751 69 281 0.0 0.9 0.00 0.00 0.00 88 1018.1
20220628110253 69 52 0.0 0.0 0.00 0.00 0.00 88 1017.9
20220628105751 69 52 0.0 0.0 0.00 0.00 0.00 87 1017.9
20220628105250 69 52 0.0 0.9 0.00 0.00 0.00 87 1017.9
20220628104739 69 52 0.0 0.9 0.00 0.00 0.00 87 1017.7
20220628104230 69 52 0.0 0.9 0.00 0.00 0.00 87 1017.7
20220628103720 69 52 0.0 0.0 0.00 0.00 0.00 86 1017.7
20220628103159 69 52 0.0 0.0 0.00 0.00 0.00 86 1017.7
20220628102658 70 52 0.0 0.0 0.00 0.00 0.00 86 1017.7
20220628102148 70 52 0.0 0.0 0.00 0.00 0.00 86 1017.7
20220628101620 70 52 0.0 0.0 0.00 0.00 0.00 86 1017.7
20220628101119 70 52 0.0 0.0 0.00 0.00 0.00 86 1017.7
20220628100622 70 52 0.0 0.0 0.00 0.00 0.00 86 1017.7
20220628100131 70 52 0.0 0.0 0.00 0.00 0.00 86 1017.6
20220628095618 70 52 0.0 0.0 0.00 0.00 0.00 86 1017.6
20220628095108 70 52 0.0 0.0 0.00 0.00 0.00 85 1017.6
20220628094606 70 52 0.0 0.0 0.00 0.00 0.00 85 1017.5
20220628094102 70 52 0.0 0.0 0.00 0.00 0.00 86 1017.5
20220628093601 70 52 0.0 0.0 0.00 0.00 0.00 85 1017.5
20220628093046 70 52 0.0 0.0 0.00 0.00 0.00 85 1017.8
20220628092542 70 52 0.0 0.0 0.00 0.00 0.00 85 1017.8
20220628092022 70 52 0.0 0.0 0.00 0.00 0.00 85 1017.8
20220628091518 71 52 0.0 0.0 0.00 0.00 0.00 84 1017.5
20220628090959 71 52 0.0 0.0 0.00 0.00 0.00 84 1017.5
20220628090458 71 52 0.0 0.0 0.00 0.00 0.00 84 1017.5
20220628085925 71 52 0.0 0.0 0.00 0.00 0.00 84 1017.3
20220628085416 71 52 0.0 0.0 0.00 0.00 0.00 84 1017.3
20220628084913 71 52 0.0 0.0 0.00 0.00 0.00 83 1017.3
20220628084350 71 52 0.0 0.0 0.00 0.00 0.00 83 1017.3
20220628083848 71 52 0.0 0.0 0.00 0.00 0.00 83 1017.3
20220628083332 71 52 0.0 0.0 0.00 0.00 0.00 83 1017.3
20220628082824 71 52 0.0 0.0 0.00 0.00 0.00 83 1017.4
20220628082253 71 52 0.0 0.0 0.00 0.00 0.00 83 1017.4
20220628081753 71 52 0.0 0.0 0.00 0.00 0.00 83 1017.3
20220628081242 72 52 0.0 0.0 0.00 0.00 0.00 83 1017.3
20220628080734 72 52 0.0 0.9 0.00 0.00 0.00 83 1017.3
20220628080220 72 52 0.0 1.7 0.00 0.00 0.00 82 1017.3
20220628075715 72 52 0.0 1.7 0.00 0.00 0.00 82 1017.3
20220628075211 72 52 0.0 1.7 0.00 0.00 0.00 82 1017.3
20220628074647 72 52 0.9 2.6 0.00 0.00 0.00 82 1017.3
20220628074147 72 52 0.0 2.6 0.00 0.00 0.00 82 1017.3
20220628073620 72 57 0.0 0.0 0.00 0.00 0.00 82 1017.3
20220628073118 72 57 0.0 1.7 0.00 0.00 0.00 82 1017.3
20220628072617 72 57 0.9 5.2 0.00 0.00 0.00 81 1017.3
20220628072115 72 57 0.0 5.2 0.00 0.00 0.00 81 1017.3
20220628071614 72 53 0.0 0.0 0.00 0.00 0.00 81 1017.3
20220628071106 73 53 0.0 0.0 0.00 0.00 0.00 80 1017.3
20220628070558 73 54 0.0 0.0 0.00 0.00 0.00 80 1017.3
20220628070100 73 53 0.0 0.0 0.00 0.00 0.00 80 1017.4
20220628065601 73 55 0.0 0.0 0.00 0.00 0.00 80 1017.4
20220628065057 73 55 0.0 0.0 0.00 0.00 0.00 80 1017.4
20220628064548 73 54 0.9 5.2 0.00 0.00 0.00 79 1017.4
20220628064048 73 53 0.9 5.2 0.00 0.00 0.00 79 1017.4
20220628063547 73 49 0.0 3.5 0.00 0.00 0.00 79 1017.4
20220628063041 73 42 0.0 3.5 0.00 0.00 0.00 79 1017.7
20220628062539 74 38 0.0 3.5 0.00 0.00 0.00 79 1017.7
20220628062032 74 37 0.0 0.9 0.00 0.00 0.00 78 1017.7
20220628061526 74 38 0.0 0.9 0.00 0.00 0.00 78 1017.8
20220628061026 74 37 0.0 1.7 0.00 0.00 0.00 78 1017.8
20220628060522 74 37 0.0 1.7 0.00 0.00 0.00 78 1017.8
20220628060023 74 38 0.0 0.9 0.00 0.00 0.00 78 1017.9
20220628055522 74 38 0.0 0.9 0.00 0.00 0.00 78 1017.9
20220628055022 74 38 0.0 0.9 0.00 0.00 0.00 78 1017.9
20220628054517 75 37 0.0 0.9 0.00 0.00 0.00 78 1017.8
20220628054017 75 32 0.0 2.6 0.00 0.00 0.00 77 1017.8
20220628053516 75 32 0.0 2.6 0.00 0.00 0.00 77 1017.8
20220628053011 75 30 0.0 1.7 0.00 0.00 0.00 77 1017.9
20220628052514 75 31 0.0 2.6 0.00 0.00 0.00 77 1017.9
20220628052004 76 30 0.0 2.6 0.00 0.00 0.00 77 1017.9
20220628051506 76 29 0.0 3.5 0.00 0.00 0.00 77 1018.0
20220628051001 76 30 0.0 3.5 0.00 0.00 0.00 77 1018.0
20220628050451 76 19 0.0 1.7 0.00 0.00 0.00 77 1018.0
20220628045940 76 13 0.0 1.7 0.00 0.00 0.00 77 1018.0
20220628045431 77 355 0.0 0.9 0.00 0.00 0.00 76 1018.0
20220628044925 77 355 0.0 2.6 0.00 0.00 0.00 76 1018.0
20220628044420 77 15 0.0 3.5 0.00 0.00 0.00 76 1017.9
20220628043919 77 15 0.0 3.5 0.00 0.00 0.00 76 1017.9
20220628043406 77 336 0.0 1.7 0.00 0.00 0.00 75 1017.9
20220628042906 77 335 0.9 5.2 0.00 0.00 0.00 75 1017.7
20220628042406 77 53 0.9 5.2 0.00 0.00 0.00 76 1017.7
20220628041907 77 38 0.9 5.2 0.00 0.00 0.00 76 1017.7
20220628041406 78 0 0.9 5.2 0.00 0.00 0.00 76 1017.7
20220628040904 78 44 0.9 4.3 0.00 0.00 0.00 76 1017.7
20220628040403 78 42 0.9 4.3 0.00 0.00 0.00 76 1017.7
20220628035905 78 62 0.9 4.3 0.00 0.00 0.00 76 1017.7
20220628035403 78 64 0.9 7.0 0.00 0.00 0.00 76 1017.7
20220628034904 78 43 0.9 7.0 0.00 0.00 0.00 76 1017.7